Reflectivity
-20 -20 -20 -20 -20 -20 -20 -20 -20 -20 -20 -20 -20 -20 -20 -20 -20 -20 -20 -20 -20 -20 -20 -20 -20 -20 -20 -20 -20 -20 -12 12 24 -20 7 -2 22 17 15 -1 6 5 -3
-20 -20 -20 -20 -20 -20 -20 -20 -20 -20 -20 -20 -20 -20 -20 -20 -20 -20 -20 -20 -20 -20 -20 -20 -20 -20 -20 -20 -20 -16 -5 -12 18 7 -20 -1 -1 19 -5 13 -7 -20 -6
-20 -20 -20 -20 -20 -20 -20 -20 -20 -20 -20 -20 -20 -20 -20 -20 -20 -20 -20 -20 -20 -20 -20 -20 -20 -20 -20 -20 -20 -3 -5 0 7 8 -16 -5 -0 8 7 9 18 14 16
-20 -20 -20 -20 -20 -20 -20 -20 -20 -20 -20 -20 -20 -20 -20 -20 -20 -20 -20 -20 -20 -20 -20 -20 -20 -20 -20 -20 -20 -6 -7 9 11 13 15 7 -18 -20 20 11 12 -20 -20
-20 -20 -20 -20 -20 -20 -20 -20 -20 -20 -20 -20 -20 -20 -20 -20 -20 -20 -20 -20 -20 -20 -20 -20 -20 -20 -20 -5 -16 -20 -19 -2 -17 8 6 12 19 16 6 -7 7 8 -20
-20 -20 -20 -20 -20 -20 -20 -20 -20 -20 -20 -20 -20 -20 -20 -20 -20 -20 -20 -20 -20 -20 -20 -20 -20 -20 -20 -20 -20 -20 -19 9 12 9 -20 2 -5 9 6 7 21 13 11
-20 -20 -20 -20 -20 -20 -20 -20 -20 -20 -20 -20 -20 -20 -20 -20 -20 -20 -20 -20 -20 -20 -20 -20 -20 -20 -20 -20 -20 -20 -20 -15 10 11 15 16 14 -3 16 23 -9 16 21
-20 -20 -20 -20 -20 -20 -20 -20 -20 -20 -20 -20 -20 -20 -20 -20 -20 -20 -20 -20 -20 -20 -20 -20 -20 -20 -20 -20 -20 -20 -20 -20 -15 -1 0 3 -15 -20 7 -2 11 3 3
-20 -20 -20 -20 -20 -20 -20 -20 -20 -20 -20 -20 -20 -20 -20 -20 -20 -20 -20 -20 -20 -20 -20 -20 -20 -20 -20 -20 -20 -11 -20 -18 -20 18 17 10 -7 9 11 10 14 11 8
-20 -20 -20 -20 -20 -20 -20 -20 -20 -20 -20 -20 -20 -20 -20 -20 -20 -20 -20 -20 -20 -20 -20 -20 5 4 -20 -20 -12 -17 -4 -10 3 -1 -20 -13 5 12 17 9 17 26 22
-20 -20 -20 -20 -20 -20 -20 -20 -20 -20 -20 -20 -20 -20 -20 -20 -20 -20 -20 -20 -12 2 3 6 -20 -20 -20 -20 -3 9 10 13 9 -8 -20 -20 10 -18 -13 -12 -4 27 13
-20 -20 -20 -20 -20 -20 -20 -20 -20 -20 -20 -20 -20 -20 -20 -20 -20 -20 -8 6 9 10 7 -7 -20 -6 2 9 10 14 14 14 11 14 -20 -15 -6 3 8 3 8 19 24
-20 -20 -20 -20 -20 -20 -20 -20 -20 -20 -20 -20 -20 -20 -20 -20 -20 -20 -20 10 12 7 5 10 -4 12 3 9 8 8 13 17 4 -4 -8 -8 -11 10 -14 9 21 21 15
-20 -20 -20 -20 -20 -20 -20 -20 -20 -20 -20 -20 -14 -3 -3 -20 -20 -19 7 -20 -10 -8 5 -20 8 -3 -20 -7 -20 -16 0 13 20 19 -1 -8 -14 7 4 17 24 22 18
-20 -20 -20 -20 -20 -20 -20 -20 -20 -20 -20 2 -1 2 1 -9 -20 12 6 8 17 -3 -20 -20 -12 -15 -20 -20 -20 -4 1 -14 4 -6 -4 -14 -16 11 13 23 26 24 22
-20 -20 -20 -20 -20 -20 -20 -20 -20 -20 -20 -15 -12 3 1 4 11 -5 8 19 14 -20 -16 -9 -1 -20 -2 -20 -20 -19 2 -15 -4 -11 -13 -5 6 11 15 21 26 22 20
-20 -20 -20 -20 -20 -20 -20 -20 -20 -20 -20 -20 -20 0 -19 8 -19 -20 14 17 -20 -15 -20 9 -0 -2 3 2 -20 -16 -17 -18 20 11 10 -7 -1 12 18 21 23 20 21
-20 -20 -20 -20 -20 -20 -20 -20 -20 -20 -20 -20 -20 -7 3 -20 -18 11 16 -10 -20 -20 -20 6 -2 -2 -20 -15 -18 -16 -16 7 12 17 17 16 15 16 18 21 21 16 14
-20 -20 -20 -20 -20 -20 -20 -20 -20 -20 -20 -20 -20 -20 -17 -10 8 14 10 -8 -20 -20 -2 -18 -20 -4 -19 -12 -20 -18 1 17 19 20 16 18 19 18 21 19 16 13 0
-20 -20 -20 -20 -20 -20 -20 -11 -8 -20 -20 -20 2 -2 -20 -20 0 -15 -18 3 -10 -4 -15 -9 -20 -6 5 -20 -19 -19 12 17 17 16 16 20 17 18 16 14 11 4 -19
-20 -20 -20 -20 -20 -20 -20 -3 -20 -11 4 -20 -20 -20 9 6 -17 -20 -19 11 3 -20 -20 -8 -20 -19 -19 -20 -20 1 16 18 18 18 21 18 16 17 11 1 -20 -20 -20
-20 -20 -20 -20 -20 -20 -17 -5 -3 -20 -14 4 -17 -19 10 -9 -20 -20 14 4 -20 -20 -20 -20 -20 -2 -20 -19 -1 13 16 18 18 18 20 19 13 4 -19 -20 -20 -20 -20
-20 -20 -20 -20 -20 7 -10 -20 -2 0 -18 -8 8 1 -20 -20 -12 -16 -19 -20 -20 -20 -20 -20 -20 -20 -20 -19 6 19 20 18 17 18 21 15 3 -12 -12 -20 -20 -20 -20
-20 -20 -12 3 1 0 1 -6 -17 4 9 7 -5 -20 -20 -1 -18 -20 -20 -20 -20 -20 -20 -18 -19 -20 -20 -6 16 17 19 15 18 21 14 7 2 -6 -20 -20 -20 -20 -20
-20 -20 -5 -3 1 2 3 2 3 4 -4 -20 -20 -0 -1 -20 -20 -20 -20 -20 -20 -20 -20 -20 -20 -20 -15 12 16 17 17 17 20 13 11 2 -20 -20 -20 -20 -20 -20 -20
-20 -17 -18 -20 -20 -20 -20 -20 -20 -20 -20 -20 -20 -20 -20 -20 -20 -20 -20 -20 -20 -20 -20 -20 -20 -20 2 15 17 20 29 19 12 5 -13 -20 -20 -20 -20 -20 -20 -20 -20
Wind_Speed
7 6 7 6 6 6 6 7 8 9 10 11 12 12 12 12 12 12 13 14 13 13 10 12 12 11 9 9 9 9 10 11 15 17 12 14 13 12 12 11 14 15 14
6 6 6 6 8 9 10 11 11 11 12 12 12 13 13 14 13 13 14 14 10 15 14 14 13 10 12 12 9 12 12 13 13 20 16 12 15 14 14 16 13 13 13
6 7 7 7 8 9 9 11 12 12 13 13 14 14 15 14 14 14 14 11 14 14 15 12 11 10 12 11 12 12 12 12 13 14 17 12 11 10 10 11 12 12 10
6 6 6 6 7 8 9 11 12 13 13 14 15 16 15 15 16 15 15 16 14 15 11 9 9 11 13 14 13 13 14 14 15 15 13 14 12 11 6 9 9 8 11
6 6 6 6 7 8 10 11 12 12 12 13 15 15 16 14 12 17 19 19 18 14 7 8 8 11 17 16 13 15 16 13 12 13 13 13 13 9 9 6 9 9 8
5 5 6 8 9 10 11 12 13 13 14 14 15 16 16 13 25 27 25 20 16 11 13 14 12 15 12 23 23 23 20 17 16 12 14 14 18 14 11 10 12 10 9
5 5 8 9 10 11 11 12 12 13 14 14 15 15 16 16 25 28 27 13 14 13 15 15 16 12 14 17 22 25 23 25 22 17 17 17 18 18 16 14 12 13 14
5 6 8 10 10 11 11 12 12 11 13 14 14 15 15 15 26 28 23 15 14 14 12 15 16 11 14 20 19 20 21 20 18 13 16 19 18 18 17 16 17 12 3
7 8 9 9 11 12 12 13 12 12 13 12 13 16 16 16 24 22 25 17 15 16 15 16 15 15 20 28 20 20 23 22 20 26 25 28 29 29 25 14 12 8 5
7 8 8 8 10 11 12 12 11 12 14 12 15 14 19 17 19 27 24 12 14 12 14 15 21 22 30 31 21 20 20 19 20 21 18 19 20 18 18 12 12 11 5
7 7 7 7 9 10 10 10 12 12 13 12 13 14 15 12 17 26 28 15 12 12 12 12 11 28 33 34 31 17 16 23 22 15 15 13 11 6 6 5 5 6 5
7 8 8 8 8 9 11 10 11 12 12 13 13 12 10 12 20 22 28 27 25 14 13 12 14 31 33 30 23 26 29 26 12 12 12 11 10 8 5 3 3 3 3
6 8 8 9 8 8 8 11 10 10 10 11 10 11 12 12 12 24 26 28 24 18 12 21 32 31 26 20 25 29 25 11 11 12 12 11 9 5 2 3 4 8 10
8 9 8 8 10 8 7 8 8 9 9 10 11 11 11 11 10 10 11 13 19 15 18 14 20 23 24 23 18 15 10 10 12 12 10 11 6 2 1 2 1 3 6
7 7 8 7 8 9 9 8 9 9 10 12 11 12 12 12 12 24 22 15 13 17 23 11 11 12 12 12 12 12 12 11 11 10 10 10 5 1 0 0 1 3 3
9 8 8 8 7 8 9 11 17 21 24 23 24 19 12 22 27 29 29 26 26 29 13 10 11 12 12 13 13 13 13 15 12 11 10 8 4 2 2 1 2 3 5
8 9 8 10 8 9 10 10 13 14 21 22 23 24 26 25 28 29 27 24 25 21 10 10 11 12 13 13 13 13 16 12 13 9 9 7 3 2 3 3 2 3 4
8 17 9 8 8 8 9 9 9 12 13 11 16 21 24 27 28 28 26 20 12 11 9 11 12 13 13 12 13 14 15 12 11 9 7 5 2 1 3 3 3 4 5
8 7 7 7 8 11 10 10 10 10 11 12 12 15 18 24 26 22 22 8 9 10 10 11 11 12 12 11 14 13 15 12 13 9 5 3 0 1 2 3 4 7 6
7 15 15 9 8 9 9 9 10 10 11 11 10 11 11 15 10 10 9 8 8 9 10 11 12 12 11 13 13 13 14 12 10 7 4 2 2 2 3 4 3 4 3
7 7 15 9 8 9 9 10 10 10 9 10 11 11 27 15 11 12 11 8 8 9 11 11 12 12 11 13 13 13 13 11 9 5 3 3 3 3 4 4 5 4 3
7 8 8 9 9 10 10 10 10 10 11 11 11 12 23 10 10 11 9 9 8 9 9 11 10 11 12 13 13 13 14 11 8 3 3 3 4 3 4 5 4 3 4
8 9 9 9 10 15 11 9 9 10 11 11 9 10 10 9 10 10 11 10 9 10 10 10 10 12 12 12 12 12 12 9 5 2 2 3 3 4 4 4 2 3 3
9 10 10 10 9 11 10 11 10 15 13 10 10 10 10 10 10 11 11 10 10 10 10 9 11 15 14 14 12 12 9 5 2 2 3 3 4 5 4 3 4 3 2
8 9 10 10 10 10 11 10 10 10 11 11 11 10 10 10 10 10 10 10 10 10 11 12 11 15 17 21 18 17 11 4 3 4 3 5 6 6 4 3 3 3 3
9 10 10 9 9 9 9 10 10 10 10 10 10 9 10 10 10 9 9 10 9 11 12 11 14 19 20 15 15 18 9 4 5 8 5 5 6 4 4 3 4 2 3
Wind_Direction
20 10 12 5 358 355 357 345 342 335 336 332 328 324 322 320 321 317 314 311 311 308 310 306 298 299 297 297 293 287 284 281 281 290 280 276 258 248 249 239 237 236 240
5 5 3 8 7 5 357 350 346 342 340 337 335 331 329 326 320 316 312 312 321 315 311 306 305 312 310 308 303 298 295 292 285 288 289 283 272 259 248 242 235 232 234
3 5 7 11 1 352 348 346 344 341 338 337 335 331 327 325 324 317 307 324 317 309 303 302 305 313 311 310 307 306 303 296 290 286 288 288 280 270 263 254 253 247 238
6 360 9 359 349 344 342 344 343 340 336 336 333 328 325 321 324 316 324 319 311 307 301 292 300 311 311 311 304 303 302 297 296 292 283 285 286 285 262 261 254 237 248
359 0 351 340 343 341 343 339 335 334 332 328 328 325 323 323 320 322 324 321 315 302 289 290 298 303 297 296 319 313 312 315 304 303 297 294 278 283 277 262 251 258 220
355 352 340 351 348 345 340 337 335 332 330 328 325 321 322 319 316 320 323 318 314 321 320 322 315 315 306 326 316 310 312 307 303 305 298 292 292 287 282 283 275 251 252
354 348 355 350 344 338 333 330 328 326 323 322 318 320 317 314 317 317 319 331 328 322 323 323 318 314 330 322 315 313 315 308 302 299 295 289 296 300 301 283 285 270 256
351 354 350 344 337 329 329 325 322 322 321 317 316 315 314 313 312 316 334 331 322 316 318 320 310 316 322 318 316 315 311 306 301 287 278 283 282 287 286 288 285 289 341
355 347 340 333 330 328 326 323 319 318 314 311 313 315 313 311 315 325 334 331 324 323 320 314 306 312 312 320 315 310 304 300 297 289 278 279 278 277 275 276 270 243 233
333 325 326 322 320 318 313 309 312 310 310 314 310 308 310 311 316 323 326 320 316 313 310 309 312 315 317 316 312 303 297 306 315 312 305 291 282 277 286 275 266 248 215
308 307 307 311 309 303 309 312 307 307 309 306 307 309 303 308 317 321 322 319 311 313 317 315 311 313 314 310 304 298 311 313 308 312 301 301 299 287 276 266 265 260 207
304 307 309 305 301 309 306 306 307 309 311 312 308 309 314 312 314 317 319 320 326 325 317 312 307 312 307 305 312 316 317 318 304 304 300 304 302 294 279 292 330 24 23
305 302 300 303 300 298 301 309 308 311 311 308 312 315 316 315 312 316 317 325 331 320 316 315 321 315 321 322 318 320 320 312 303 302 303 303 297 300 342 313 49 72 70
303 302 298 298 308 311 301 304 307 307 308 308 311 311 310 309 311 311 323 321 323 328 320 321 317 324 321 315 314 312 313 308 306 304 300 299 297 302 312 340 3 78 79
294 290 301 301 306 309 304 306 303 300 304 314 313 312 313 313 313 324 327 325 328 329 330 323 322 324 317 314 313 315 315 312 313 310 305 298 289 256 260 16 18 21 68
305 309 304 308 303 307 307 307 302 306 314 316 316 315 316 316 320 325 326 331 333 337 331 317 323 317 315 317 318 315 316 320 313 313 307 294 277 219 189 90 54 88 116
293 301 302 310 307 307 306 302 305 311 313 317 318 319 318 317 325 322 324 330 338 339 322 316 319 317 316 317 320 314 315 317 312 308 305 299 263 212 187 125 107 108 100
290 301 302 297 296 294 296 297 303 310 313 315 315 315 318 322 320 322 329 338 323 329 317 320 318 317 316 314 319 316 309 316 316 313 309 297 279 222 129 133 123 107 107
292 291 287 286 293 299 303 301 301 302 304 305 308 310 313 315 319 322 325 315 314 317 321 319 316 314 312 312 316 308 309 314 319 319 313 299 340 103 98 97 117 126 123
282 291 305 304 299 300 301 296 301 302 300 300 303 309 314 313 324 319 316 314 311 312 315 314 316 314 312 318 312 310 310 318 319 314 311 321 37 65 89 88 79 86 72
291 290 299 304 293 290 294 296 295 293 291 299 302 302 314 324 328 318 311 314 311 313 310 312 314 311 316 315 311 309 313 315 317 311 329 3 32 58 70 70 73 87 102
286 294 297 294 291 292 292 292 299 300 293 296 300 301 313 324 310 307 310 314 312 307 306 306 311 314 315 311 311 311 311 315 319 324 353 26 51 62 65 72 66 55 56
296 293 290 289 289 292 295 290 288 294 295 294 298 307 313 309 308 312 313 313 314 309 309 308 307 313 312 310 308 309 309 317 318 334 28 50 52 64 71 79 76 60 49
293 292 290 290 294 297 302 298 293 295 301 305 306 306 306 306 308 308 310 311 309 307 307 307 311 308 312 312 312 310 311 315 344 47 72 82 66 79 74 64 53 52 53
299 294 296 297 299 300 302 300 299 300 305 301 302 302 303 305 304 303 306 306 306 305 308 314 311 313 315 316 314 314 322 9 69 76 70 82 86 75 71 64 49 34 38
301 301 301 301 299 298 298 297 294 292 290 291 293 291 292 298 297 298 299 303 306 308 309 310 312 315 317 316 314 325 4 79 85 100 90 84 85 71 68 75 58 35 49